[ hide orbit diagram ]
For accurate long-term ephemerides, please instead use our Horizons system.This orbit viewer was implemented using two-body methods, and hence should not be used for determining accurate long-term trajectories (over several years or decades) or planetary encounter circumstances.
Orbital Elements at Epoch 2459200.5 (2020-Dec-17.0) TDB
Reference: JPL 35 (heliocentric ecliptic J2000)
Element | Value | Uncertainty (1-sigma) | Units |
e | .18117499160759 | 4.2828e-08 | |
a | 3.182020117205591 | 1.772e-08 | au |
q | 2.605517649175686 | 1.3102e-07 | au |
i | 1.601320710592825 | 4.263e-06 | deg |
node | 66.61520908512898 | 0.00014234 | deg |
peri | 275.1582892571005 | 0.00014281 | deg |
M | 103.0058959384059 | 1.2179e-05 | deg |
tp | 2458607.284634636420 (2019-May-03.78463464) | 6.9802e-05 | TDB |
period | 2073.255414996722 5.68 | 1.7318e-05 4.741e-08 | d yr |
n | .1736399661112518 | 1.4504e-09 | deg/d |
Q | 3.758522585235497 | 2.093e-08 | au |
|
| | Orbit Determination Parameters
Additional Information
|
[ show covariance matrix ]
Physical Parameter Table
Parameter |
Symbol |
Value |
Units |
Sigma |
Reference |
Notes |
absolute magnitude |
H |
13.29 |
|
n/a |
E2021B10 |
|
diameter |
diameter |
10.667 |
km |
0.225 |
urn:nasa:pds:neowise_diameters_albedos::2.0[mainbelt] (http://adsabs.harvard.edu/abs/2011ApJ...741...68M) |
|
geometric albedo |
albedo |
0.081 |
|
0.007 |
urn:nasa:pds:neowise_diameters_albedos::2.0[mainbelt] (http://adsabs.harvard.edu/abs/2011ApJ...741...68M) |
|
|
14428 Lazaridis | Discovered 1991 Nov. 8 by Spacewatch at Kitt Peak. |
Mike Lazaridis (b. 1961) founded a technology company specializing in mobile communications, in Waterloo, Ontario, in 1984. In 2000, he organized the Perimeter Institute, dedicated to pure research in physics and cosmology. |
NOTE: some special characters may not display properly (any characters within {} are an attempt to place the proper accent above a character) |
Reference: 20030614/MPCPages.arc | Last Updated: 2005-04-26 |
|
[ show close-approach data ]
|